Location: Castillon
(43.1358°N, 0.8654°E)
Time: 18:15:21
(UTC+00:00)

CZ-3B R/B - Pass Details

Date: 24 January 2021
Orbit: 278 x 17417 km, 54.8° (Epoch: 27 February)

Event Time Altitude Azimuth Distance (km) Brightness Sun altitude
Rises 19:58:37 0° 301° (WNW) 2,595 6.1 -32.7°
Reaches altitude 10° 19:59:59 10° 295° (WNW) 2,016 5.4 -33.0°
Maximum altitude 20:04:00 52° 218° (SW) 1,418 3.9 -33.7°
Enters shadow 20:07:21 36° 166° (SSE) 2,512 4.9 -34.3°
Exits shadow 20:16:53 13° 149° (SSE) 6,404 6.8 -36.1°
Drops below altitude 10° 20:19:12 10° 149° (SSE) 7,280 7.1 -36.5°
Sets 20:30:18 0° 147° (SSE) 11,040 8.1 -38.5°
